AKDT,Max TemperatureF,Mean TemperatureF,Min TemperatureF,Max Dew PointF,MeanDew PointF,Min DewpointF,Max Humidity, Mean Humidity, Min Humidity, Max Sea Level PressureIn, Mean Sea Level PressureIn, Min Sea Level PressureIn, Max VisibilityMiles, Mean VisibilityMiles, Min VisibilityMiles, Max Wind SpeedMPH, Mean Wind SpeedMPH, Max Gust SpeedMPH,PrecipitationIn, CloudCover, Events, WindDirDegrees
2012-9-1,55,52,48,51,48,46,100,92,80,29.67,29.59,29.52,10,8,2,9,5,,0.30,8,Rain,335
2012-9-2,59,54,50,50,46,37,96,81,47,29.75,29.71,29.62,10,10,10,14,3,,0.08,7,Rain,308
2012-9-3,61,54,48,52,48,43,97,85,56,29.76,29.59,29.50,10,10,5,14,5,26,0.15,8,Rain,263
2012-9-4,57,52,48,47,42,36,89,67,44,29.91,29.81,29.52,10,10,7,20,5,58,0.10,7,Rain,141
2012-9-5,57,54,51,47,39,36,86,57,44,29.86,29.66,29.55,10,10,7,23,14,33,0.17,7,Rain,166
2012-9-6,61,54,50,38,36,34,61,53,41,30.13,30.04,29.88,10,10,10,21,14,30,0.00,5,,192
2012-9-7,57,50,45,45,39,33,90,66,45,30.12,30.00,29.88,10,10,10,8,3,,0.03,4,Rain,337
2012-9-8,57,46,37,40,37,34,96,80,44,29.89,29.81,29.70,10,8,0,13,2,16,0.00,4,Fog,4
2012-9-9,61,48,35,35,30,25,89,54,25,29.81,29.73,29.70,10,10,10,17,5,22,0.00,1,,15
2012-9-10,57,44,30,42,31,24,89,60,29,29.88,29.84,29.80,10,10,10,7,2,,0.00,0,,5
2012-9-11,55,44,34,40,34,29,82,65,43,29.86,29.82,29.74,10,10,10,8,3,,0.00,4,Rain,289
2012-9-12,51,48,44,47,43,40,97,86,74,29.75,29.67,29.62,10,10,8,6,2,,0.42,8,Rain,12
2012-9-13,59,50,43,47,44,41,97,83,57,29.83,29.80,29.77,10,10,10,6,1,,0.01,6,,325
2012-9-14,54,50,46,48,46,43,97,87,74,29.82,29.80,29.78,10,9,6,7,1,,0.21,8,Rain,356
2012-9-15,57,52,48,49,47,44,96,88,67,29.82,29.77,29.63,10,10,8,12,5,20,0.40,7,Rain,334
2012-9-16,57,50,46,48,44,33,100,83,43,29.62,29.45,29.34,10,8,3,20,9,32,1.05,7,Rain,295
2012-9-17,60,52,48,44,41,34,86,69,48,29.93,29.84,29.60,10,10,7,15,11,24,0.27,6,Rain,197
2012-9-18,55,51,48,43,38,33,83,60,47,29.88,29.79,29.75,10,10,10,20,7,26,0.02,8,Rain,296
2012-9-19,62,54,46,49,46,43,97,88,58,29.81,29.59,29.47,10,9,4,15,7,28,0.92,8,Rain,276
2012-9-20,55,52,50,52,51,48,100,94,83,29.71,29.67,29.62,10,9,7,8,4,,0.78,8,Rain,323
2012-9-21,59,50,43,53,48,43,100,89,72,29.84,29.74,29.57,10,10,5,8,5,,0.38,5,Rain,345
2012-9-22,66,57,50,51,47,37,100,76,38,29.54,29.43,29.38,10,10,10,15,7,29,0.08,7,Rain,330
2012-9-23,54,51,48,51,47,45,97,90,80,29.75,29.52,29.37,10,10,8,9,3,,0.18,8,Rain,306
2012-9-24,52,49,46,46,43,35,93,81,53,29.95,29.88,29.77,10,10,10,7,3,,0.01,7,Rain,305
2012-9-25,50,47,44,45,43,40,100,89,74,29.84,29.56,29.25,10,10,10,7,2,,0.00,7,Rain,337
2012-9-26,53,48,43,41,38,33,86,70,47,29.39,29.20,28.81,10,10,10,9,4,,0.00,7,,333
2012-9-27,48,44,41,41,39,38,89,80,71,29.03,28.91,28.80,10,10,10,7,2,,0.00,7,,249
2012-9-28,45,40,35,43,40,34,100,92,80,29.47,29.24,29.03,10,9,4,14,5,17,0.44,8,Rain-Snow,198
2012-9-29,46,40,33,34,31,26,100,80,47,29.89,29.68,29.49,10,8,1,8,4,,0.05,6,Rain-Snow,120
2012-9-30,46,38,30,32,29,23,93,76,40,30.08,30.00,29.91,10,9,1,6,2,,0.00,4,,34